THORAD DELTA 1 DEB, 8437

Orbit data source: Space-Track

THORAD DELTA 1 DEB, 8437 is space debris in SSO originally from a launch on Fri, 15 Nov 1974 UTC launched from the Air Force Western Test Range (AFWTR). Debris objects in space refer to the collection of defunct objects orbiting the Earth. Examples of debris include non-operational satellites, rocket bodies, and fragments generated from explosions, collisions, or faulty payload assembly.

Loading next visibility...
Identifier
8437, 1974-089CN
Orbit
SSO
Country
Flag of USUS
Related business
Manufacturer
Unknown
Mission
Spacecraft
Bus & Motor
Unknown
Mass
Unknown
Launch date (UTC)
1974-11-15 (52 years ago)
Launch vehicle
Unknown
Launch site
Air Force Western Test Range (AFWTR)
Object type
Payload
Rocket body
Debris
Shape & HBR
Unknown shape, 0.1 m
Radar Cross Section
Medium (>0.1 m² and <1 m²)

Expand to show TLE details & history
Last TLE update: 1 day ago

TLE from 1 day ago
0 THORAD DELTA 1 DEB
1 08437U 74089CN  26206.98207009  .00000009  00000-0  32606-3 0  9990
2 08437 101.9168 209.9898 0045071  49.7432 336.6453 12.58342688373427
Epoch: 2026-07-25T23:34Z
TLE epoch observation values (Epoch: 2026-07-25T23:34:10.855Z)
Latitude
25.60885°
Longitude
-93.01871°
Altitude
1,400.314 km
Speed
7.177 km/s
True Right ascension
13h 36m 51s
True Declination
25° 29' 10"
Sunlit
Object was in daylight at epoch
Visualization orbit readout
Latitude
Unknown
Longitude
Unknown
Altitude
Unknown
Speed
Unknown
Apparent Right ascension
Unknown
Apparent Declination
Unknown
Sunlit
N/A
Visualization observer readout
Local Sidereal Time
19:18:20
Azimuth
Unknown
Elevation
Unknown
Doppler factor
Unknown
Orbital elements
Apogee altitude
1,462.518 km
Perigee altitude
1,392.158 km
Semi-major axis
7,805.475 km
Eccentricity
0.00451
Inclination
101.9168°
RAAN
209.9898°
Arg. of periapsis
49.7432°
True anomaly
336.43949°
Mean anomaly
336.6453°
Eccentric anomaly
336.5425°
Mean motion
3.14734 °/min
Orbital period
114.38 mins
BSTAR
0.00032606
Loading maneuver chart data...
Computing Atmospheric mass density...
Loading historical data...
Loading historical data...
Loading historical data...
Loading historical data...
Loading historical data...
Loading historical data...
Loading historical data...

Documentation

Showing up to 5 results
|